sat.trackr.live / text

‹ back to catalog

KUIPER-00077

NORAD 64824 · 2025-151J

PAYLOAD ACTIVE UNKNOWN

§ Identity

Operator
Country
US
Launch date
2025-07-16
Launch site
AFETR
Launch vehicle
Mass (kg)
RCS (m²)

External: N2YO · Heavens-Above · Gunter

§ Orbital elements

Epoch: 2026-05-24T20:51:12.887424Z

Period
97.30 min
Inclination
51.9028°
Eccentricity
0.0000741
Mean motion
14.79934136 rev/d
Perigee alt
629.0 km
Apogee alt
630.1 km
Semi-major
7,007.7 km
B*
2.7149e-4
RAAN
321.2457°
Arg perigee
117.3381°
Mean anomaly
242.7657°
Rev number
4,662

§ Raw data

KUIPER-000771 64824U 25151J   26144.86889916  .00001849  00000+0  27149-3 0  99972 64824  51.9028 321.2457 0000741 117.3381 242.7657 14.79934136 46629

JSON: /api/v1/satellites/64824 · /tle

For live sub-satellite position, see the globe view (requires WebGL).

§ Visibility from observer

Set your observer location to see the next 7 days of passes ≥ 10°. The values pass through the URL so the page stays shareable.

No JS? Fill the form by hand. The geolocation button needs JavaScript.